Location: Unspecified
(0.0000°N, 0.0000°E)
Time: 01:23:53
(UTC+00:00)

Tiros 1 despin weight - Pass Details

Date: 25 November 2019
Orbit: 594 x 642 km, 48.2° (Epoch: 10 December)

Event Time Altitude Azimuth Distance (km) Brightness Sun altitude
Rises 19:24:08 0° 323° (NW) 2,865 ? -22.6°
Reaches altitude 10° 19:26:25 10° 324° (NW) 1,971 ? -23.1°
Enters shadow 19:30:33 72° 349° (N) 656 ? -24.1°
Maximum altitude 19:30:58 81° 51° (NE) 634 - -24.2°
Drops below altitude 10° 19:35:35 10° 138° (SE) 2,008 - -25.2°
Sets 19:37:56 0° 139° (SE) 2,924 - -25.8°
